Погода в Подгорном

Россия / Тульская область     53°30′00″N   37°02′36″E
темп.,
°C
ветер,
м/с
пор.,
м/с
влажн.,
%
обл.,
%
осадки,
мм/ч
давл.,
гПа
погр.,
м
14 мая, пт
пт1400:00+9юв35934 0.0 101680
03:00+9юв3595100 0.0 101773
06:00+10вюв369576 0.0 1016127
09:00+16вюв478098 0.0 1015402
12:00+18вюв6875100 0.6 1014798
15:00+19юв7117780 3.9 10121154
18:00+19ююв61279100 2.9 1010490
21:00+16ююв51591100 3.6 1009396
15 мая, сб
сб1500:00+15ююв4894100 0.5 1009150
03:00+14ююв3596100 1.4 100990
06:00+14ю35965 0.0 1009120
09:00+17ююз5782100 0.0 1010492
12:00+20ююз68660 0.1 10111402
15:00+20ююз7963100 0.3 10101779
18:00+18ююз611783 0.8 1011951
21:00+14ююз4119173 3.1 1012262
16 мая, вс
вс1600:00+12ююз37950 0.0 1013142
03:00+11ююз36955 0.0 1013102
06:00+12ю35925 0.0 1014123
09:00+15ююз4784100 0.0 1015342
12:00+19юз57675 0.1 10151217
15:00+21юз58580 0.3 10141698
18:00+20зюз246935 0.0 1014493
21:00+16св1179100 0.0 101411
17 мая, пн
пн1700:00+14всв348423 0.0 101457
03:00+13в4119399 0.7 1014203
06:00+14в51292100 0.2 1012248
09:00+19в6127864 0.2 1011474
12:00+23юв71163100 0.0 1010716
15:00+24юв712635 0.0 10091115
18:00+22юв71468100 0.0 1008570
21:00+19юв7177262 0.0 1008502
18 мая, вт
вт1800:00+17юв514798 0.0 1007329
03:00+15юв41187100 0.0 1006216
06:00+15юв41088100 0.0 1006211
09:00+19ююв61180100 0.0 1005535
12:00+22ю71176100 0.2 10061220
15:00+21ю91279100 1.3 10071124
18:00+19ю6108463 0.4 1007904
21:00+15ю3894100 0.9 1007184